Time,TemperatureF,DewpointF,PressureIn,WindDirection,WindDirectionDegrees,WindSpeedMPH,WindSpeedGustMPH,Humidity,HourlyPrecipIn,Conditions,Clouds,dailyrainin,SolarRadiationWatts/m^2,SoftwareType,DateUTC
2013-02-28 00:00:00,34.2,33.4,29.72,NNE,19,1.0,12.0,97,-99.99,,,-99.99,0.0,meteohub,2013-02-28 05:00:00,
2013-02-28 00:01:00,34.2,33.4,29.73,North,5,6.0,12.0,97,-99.99,,,-99.99,0.0,meteohub,2013-02-28 05:01:00,
2013-02-28 00:02:00,34.2,33.4,29.72,North,355,8.0,12.0,97,-99.99,,,-99.99,0.0,meteohub,2013-02-28 05:02:00,
2013-02-28 00:07:00,34.2,33.4,29.72,NE,42,9.0,13.0,97,-99.99,,,-99.99,0.0,meteohub,2013-02-28 05:07:00,
2013-02-28 00:12:00,34.3,33.6,29.72,East,95,3.0,13.0,97,-99.99,,,-99.99,0.0,meteohub,2013-02-28 05:12:00,
2013-02-28 00:17:00,34.3,33.6,29.72,NNE,33,1.0,13.0,97,-99.99,,,-99.99,0.0,meteohub,2013-02-28 05:17:00,
2013-02-28 00:22:00,34.5,33.8,29.72,NNE,17,3.0,15.0,97,-99.99,,,-99.99,0.0,meteohub,2013-02-28 05:22:00,
2013-02-28 00:27:00,34.5,33.8,29.72,NNE,23,3.0,15.0,97,-99.99,,,-99.99,0.0,meteohub,2013-02-28 05:27:00,
2013-02-28 00:32:00,34.7,34.0,29.72,NNE,31,2.0,15.0,97,-99.99,,,-99.99,0.0,meteohub,2013-02-28 05:32:00,
2013-02-28 00:37:00,34.9,34.2,29.72,NE,38,2.0,15.0,97,-99.99,,,-99.99,0.0,meteohub,2013-02-28 05:37:00,
2013-02-28 00:42:00,35.1,34.3,29.72,ENE,57,7.0,15.0,97,-99.99,,,-99.99,0.0,meteohub,2013-02-28 05:42:00,
2013-02-28 00:47:00,35.2,34.5,29.72,NE,51,2.0,10.0,97,-99.99,,,-99.99,0.0,meteohub,2013-02-28 05:47:00,
2013-02-28 00:52:00,35.2,34.5,29.72,ENE,65,7.0,13.0,97,-99.99,,,-99.99,0.0,meteohub,2013-02-28 05:52:00,
2013-02-28 00:57:00,35.4,34.7,29.72,North,5,8.0,14.0,97,-99.99,,,-99.99,0.0,meteohub,2013-02-28 05:57:00,
2013-02-28 01:02:00,35.4,34.7,29.72,NNE,13,3.0,14.0,97,-99.99,,,-99.99,0.0,meteohub,2013-02-28 06:02:00,
2013-02-28 01:07:00,35.4,34.7,29.72,NNE,30,2.0,14.0,97,-99.99,,,-99.99,0.0,meteohub,2013-02-28 06:07:00,
2013-02-28 01:12:00,35.6,34.9,29.71,NE,40,13.0,13.0,97,-99.99,,,-99.99,0.0,meteohub,2013-02-28 06:12:00,
2013-02-28 01:17:00,35.8,35.1,29.71,ENE,61,7.0,13.0,97,-99.99,,,-99.99,0.0,meteohub,2013-02-28 06:17:00,
2013-02-28 01:22:00,35.8,35.1,29.72,East,86,5.0,19.0,97,-99.99,,,-99.99,0.0,meteohub,2013-02-28 06:22:00,
2013-02-28 01:27:00,36.0,35.2,29.72,NE,55,7.0,19.0,97,-99.99,,,-99.99,0.0,meteohub,2013-02-28 06:27:00,
2013-02-28 01:32:00,36.0,35.2,29.72,ESE,104,5.0,19.0,97,-99.99,,,-99.99,0.0,meteohub,2013-02-28 06:32:00,
2013-02-28 01:37:00,36.0,35.2,29.71,East,84,7.0,14.0,97,-99.99,,,-99.99,0.0,meteohub,2013-02-28 06:37:00,
2013-02-28 01:42:00,36.0,35.2,29.71,NNE,30,9.0,13.0,97,-99.99,,,-99.99,0.0,meteohub,2013-02-28 06:42:00,
2013-02-28 01:47:00,36.0,35.2,29.70,NNE,28,3.0,15.0,97,-99.99,,,-99.99,0.0,meteohub,2013-02-28 06:47:00,
2013-02-28 01:52:00,36.0,35.2,29.70,ENE,65,2.0,15.0,97,-99.99,,,-99.99,0.0,meteohub,2013-02-28 06:52:00,
2013-02-28 01:57:00,36.1,35.4,29.70,NNE,31,6.0,15.0,97,-99.99,,,-99.99,0.0,meteohub,2013-02-28 06:57:00,
2013-02-28 02:02:00,36.1,35.4,29.70,NE,38,4.0,13.0,97,-99.99,,,-99.99,0.0,meteohub,2013-02-28 07:02:00,
2013-02-28 02:07:00,36.3,35.6,29.70,ENE,63,4.0,14.0,97,-99.99,,,-99.99,0.0,meteohub,2013-02-28 07:07:00,
2013-02-28 02:12:00,36.3,35.6,29.70,NE,46,4.0,14.0,97,-99.99,,,-99.99,0.0,meteohub,2013-02-28 07:12:00,
2013-02-28 02:17:00,36.5,35.8,29.70,NNE,19,2.0,14.0,97,-99.99,,,-99.99,0.0,meteohub,2013-02-28 07:17:00,
2013-02-28 02:22:00,36.5,35.8,29.70,SSE,153,4.0,13.0,97,-99.99,,,-99.99,0.0,meteohub,2013-02-28 07:22:00,
2013-02-28 02:27:00,36.7,36.0,29.69,East,101,6.0,13.0,97,-99.99,,,-99.99,0.0,meteohub,2013-02-28 07:27:00,
2013-02-28 02:32:00,36.7,36.0,29.69,East,82,8.0,11.0,97,-99.99,,,-99.99,0.0,meteohub,2013-02-28 07:32:00,
2013-02-28 02:37:00,36.9,36.1,29.69,NNE,29,3.0,12.0,97,-99.99,,,-99.99,0.0,meteohub,2013-02-28 07:37:00,
2013-02-28 02:42:00,36.9,36.3,29.69,ENE,78,3.0,12.0,98,-99.99,,,-99.99,0.0,meteohub,2013-02-28 07:42:00,
2013-02-28 02:47:00,37.0,36.5,29.69,NE,34,5.0,12.0,98,-99.99,,,-99.99,0.0,meteohub,2013-02-28 07:47:00,
2013-02-28 02:52:00,37.2,36.7,29.69,NE,42,2.0,11.0,98,-99.99,,,-99.99,0.0,meteohub,2013-02-28 07:52:00,
2013-02-28 02:57:00,37.4,36.9,29.68,NE,37,7.0,11.0,98,-99.99,,,-99.99,0.0,meteohub,2013-02-28 07:57:00,
2013-02-28 03:02:00,37.6,37.0,29.69,NNE,32,5.0,12.0,98,-99.99,,,-99.99,0.0,meteohub,2013-02-28 08:02:00,
2013-02-28 03:07:00,37.8,37.2,29.68,East,93,1.0,12.0,98,-99.99,,,-99.99,0.0,meteohub,2013-02-28 08:07:00,
2013-02-28 03:12:00,37.8,37.2,29.68,East,81,5.0,12.0,98,-99.99,,,-99.99,0.0,meteohub,2013-02-28 08:12:00,
2013-02-28 03:18:00,37.8,37.2,29.68,ENE,61,2.0,12.0,98,-99.99,,,-99.99,0.0,meteohub,2013-02-28 08:18:00,
2013-02-28 03:23:00,37.9,37.4,29.68,NE,41,4.0,12.0,98,-99.99,,,-99.99,0.0,meteohub,2013-02-28 08:23:00,
2013-02-28 03:28:00,37.9,37.4,29.68,East,84,1.0,12.0,98,-99.99,,,-99.99,0.0,meteohub,2013-02-28 08:28:00,
2013-02-28 03:33:00,37.9,37.4,29.68,NE,49,4.0,14.0,98,-99.99,,,-99.99,0.0,meteohub,2013-02-28 08:33:00,
2013-02-28 03:38:00,38.1,37.6,29.68,NE,37,1.0,14.0,98,-99.99,,,-99.99,0.0,meteohub,2013-02-28 08:38:00,
2013-02-28 03:43:00,38.1,37.6,29.68,NNE,21,4.0,13.0,98,-99.99,,,-99.99,0.0,meteohub,2013-02-28 08:43:00,
2013-02-28 03:48:00,38.1,37.6,29.68,West,269,2.0,13.0,98,-99.99,,,-99.99,0.0,meteohub,2013-02-28 08:48:00,
2013-02-28 03:53:00,38.1,37.6,29.68,NNE,13,8.0,12.0,98,-99.99,,,-99.99,0.0,meteohub,2013-02-28 08:53:00,
2013-02-28 03:58:00,38.1,37.6,29.68,ENE,77,8.0,12.0,98,-99.99,,,-99.99,0.0,meteohub,2013-02-28 08:58:00,
2013-02-28 04:03:00,38.3,37.8,29.68,ENE,76,4.0,13.0,98,-99.99,,,-99.99,0.0,meteohub,2013-02-28 09:03:00,
2013-02-28 04:08:00,38.5,37.9,29.68,ENE,71,5.0,13.0,98,-99.99,,,-99.99,0.0,meteohub,2013-02-28 09:08:00,
2013-02-28 04:13:00,38.5,37.9,29.68,ENE,69,4.0,13.0,98,-99.99,,,-99.99,0.0,meteohub,2013-02-28 09:13:00,
2013-02-28 04:18:00,38.5,37.9,29.67,NE,52,2.0,10.0,98,-99.99,,,-99.99,0.0,meteohub,2013-02-28 09:18:00,
2013-02-28 04:23:00,38.5,37.9,29.67,ENE,73,2.0,10.0,98,-99.99,,,-99.99,0.0,meteohub,2013-02-28 09:23:00,
2013-02-28 04:29:00,38.5,37.9,29.68,ESE,106,5.0,11.0,98,-99.99,,,-99.99,0.0,meteohub,2013-02-28 09:29:00,
2013-02-28 04:34:00,38.5,37.9,29.67,NE,52,2.0,11.0,98,-99.99,,,-99.99,0.0,meteohub,2013-02-28 09:34:00,
2013-02-28 04:39:00,38.5,37.9,29.67,NE,51,5.0,11.0,98,-99.99,,,-99.99,0.0,meteohub,2013-02-28 09:39:00,
2013-02-28 04:44:00,38.7,38.1,29.67,NNE,23,2.0,10.0,98,-99.99,,,-99.99,0.0,meteohub,2013-02-28 09:44:00,
2013-02-28 04:49:00,38.7,38.1,29.67,North,0,4.0,11.0,98,-99.99,,,-99.99,0.0,meteohub,2013-02-28 09:49:00,
2013-02-28 04:54:00,38.7,38.1,29.67,NNE,32,2.0,11.0,98,-99.99,,,-99.99,0.0,meteohub,2013-02-28 09:54:00,
2013-02-28 04:59:00,38.7,38.1,29.67,East,85,0.0,11.0,98,-99.99,,,-99.99,0.0,meteohub,2013-02-28 09:59:00,
2013-02-28 05:04:00,38.5,37.9,29.67,NNE,30,5.0,9.0,98,-99.99,,,-99.99,0.0,meteohub,2013-02-28 10:04:00,
2013-02-28 05:09:00,38.7,38.1,29.67,East,88,2.0,9.0,98,-99.99,,,-99.99,0.0,meteohub,2013-02-28 10:09:00,
2013-02-28 05:14:00,38.7,38.1,29.68,NNE,28,3.0,15.0,98,-99.99,,,-99.99,0.0,meteohub,2013-02-28 10:14:00,
2013-02-28 05:19:00,38.7,38.1,29.68,ENE,74,3.0,15.0,98,-99.99,,,-99.99,0.0,meteohub,2013-02-28 10:19:00,
2013-02-28 05:24:00,38.7,38.1,29.68,ENE,74,4.0,9.0,98,-99.99,,,-99.99,0.0,meteohub,2013-02-28 10:24:00,
2013-02-28 05:29:00,38.7,38.1,29.67,ENE,59,3.0,9.0,98,-99.99,,,-99.99,0.0,meteohub,2013-02-28 10:29:00,
2013-02-28 05:34:00,38.7,38.1,29.67,East,82,2.0,12.0,98,-99.99,,,-99.99,0.0,meteohub,2013-02-28 10:34:00,
2013-02-28 05:39:00,38.7,38.1,29.67,NE,35,4.0,12.0,98,-99.99,,,-99.99,0.0,meteohub,2013-02-28 10:39:00,
2013-02-28 05:44:00,38.7,38.1,29.67,NE,53,2.0,12.0,98,-99.99,,,-99.99,0.0,meteohub,2013-02-28 10:44:00,
2013-02-28 05:49:00,38.7,38.1,29.67,North,9,2.0,10.0,98,-99.99,,,-99.99,0.0,meteohub,2013-02-28 10:49:00,
2013-02-28 05:54:00,38.7,38.1,29.67,East,92,0.0,10.0,98,-99.99,,,-99.99,0.0,meteohub,2013-02-28 10:54:00,
2013-02-28 05:59:00,38.7,38.1,29.67,East,92,2.0,10.0,98,-99.99,,,-99.99,0.0,meteohub,2013-02-28 10:59:00,
2013-02-28 06:04:00,38.7,38.1,29.67,ENE,57,3.0,10.0,98,-99.99,,,-99.99,0.0,meteohub,2013-02-28 11:04:00,
2013-02-28 06:09:00,38.7,38.1,29.67,ENE,67,2.0,7.0,98,-99.99,,,-99.99,0.0,meteohub,2013-02-28 11:09:00,
2013-02-28 06:14:00,38.7,38.1,29.67,NE,50,2.0,9.0,98,-99.99,,,-99.99,0.0,meteohub,2013-02-28 11:14:00,
2013-02-28 06:19:00,38.7,38.1,29.67,ENE,65,5.0,9.0,98,-99.99,,,-99.99,0.0,meteohub,2013-02-28 11:19:00,
2013-02-28 06:24:00,38.7,38.1,29.67,ENE,69,2.0,8.0,98,-99.99,,,-99.99,0.0,meteohub,2013-02-28 11:24:00,
2013-02-28 06:29:00,38.7,38.1,29.67,East,80,3.0,8.0,98,-99.99,,,-99.99,0.0,meteohub,2013-02-28 11:29:00,
2013-02-28 06:34:00,38.8,38.3,29.67,ENE,76,4.0,12.0,98,-99.99,,,-99.99,0.0,meteohub,2013-02-28 11:34:00,
2013-02-28 06:39:00,38.7,38.1,29.67,ESE,109,9.0,12.0,98,-99.99,,,-99.99,0.0,meteohub,2013-02-28 11:39:00,
2013-02-28 06:44:00,38.8,38.3,29.67,ENE,65,4.0,12.0,98,-99.99,,,-99.99,0.0,meteohub,2013-02-28 11:44:00,
2013-02-28 06:49:00,38.8,38.3,29.67,ESE,117,3.0,9.0,98,-99.99,,,-99.99,0.0,meteohub,2013-02-28 11:49:00,
2013-02-28 06:54:00,38.8,38.3,29.67,NE,53,4.0,9.0,98,-99.99,,,-99.99,5.0,meteohub,2013-02-28 11:54:00,
2013-02-28 06:59:00,38.8,38.3,29.67,NE,40,0.0,8.0,98,-99.99,,,-99.99,7.0,meteohub,2013-02-28 11:59:00,
2013-02-28 07:04:00,38.8,38.3,29.67,East,88,2.0,8.0,98,-99.99,,,-99.99,11.0,meteohub,2013-02-28 12:04:00,
2013-02-28 07:09:00,38.8,38.3,29.67,NNE,33,0.0,8.0,98,-99.99,,,-99.99,11.0,meteohub,2013-02-28 12:09:00,
2013-02-28 07:15:00,38.8,38.3,29.67,ENE,74,1.0,8.0,98,-99.99,,,-99.99,18.0,meteohub,2013-02-28 12:15:00,
2013-02-28 07:20:00,39.0,38.5,29.67,ENE,63,4.0,9.0,98,-99.99,,,-99.99,12.0,meteohub,2013-02-28 12:20:00,
2013-02-28 07:25:00,39.0,38.5,29.67,NE,50,5.0,9.0,98,-99.99,,,-99.99,23.0,meteohub,2013-02-28 12:25:00,
2013-02-28 07:30:00,39.0,38.5,29.67,NE,37,2.0,9.0,98,-99.99,,,-99.99,26.0,meteohub,2013-02-28 12:30:00,
2013-02-28 07:35:00,39.0,38.5,29.67,NNE,22,5.0,9.0,98,-99.99,,,-99.99,28.0,meteohub,2013-02-28 12:35:00,
2013-02-28 07:40:00,39.0,38.5,29.67,East,92,1.0,12.0,98,-99.99,,,-99.99,30.0,meteohub,2013-02-28 12:40:00,
2013-02-28 07:45:00,39.2,38.7,29.67,ESE,121,1.0,12.0,98,-99.99,,,-99.99,35.0,meteohub,2013-02-28 12:45:00,
2013-02-28 07:50:00,39.2,38.7,29.67,East,87,2.0,15.0,98,-99.99,,,-99.99,28.0,meteohub,2013-02-28 12:50:00,
2013-02-28 07:55:00,39.4,38.8,29.66,ENE,63,4.0,15.0,98,-99.99,,,-99.99,32.0,meteohub,2013-02-28 12:55:00,
2013-02-28 08:00:00,39.2,38.7,29.66,NNE,17,1.0,10.0,98,-99.99,,,-99.99,25.0,meteohub,2013-02-28 13:00:00,
2013-02-28 08:05:00,39.0,38.5,29.66,ENE,63,0.0,8.0,98,-99.99,,,-99.99,26.0,meteohub,2013-02-28 13:05:00,
2013-02-28 08:10:00,39.0,38.5,29.66,East,97,5.0,7.0,98,-99.99,,,-99.99,23.0,meteohub,2013-02-28 13:10:00,
2013-02-28 08:15:00,39.0,38.5,29.66,NE,35,0.0,7.0,98,-99.99,,,-99.99,26.0,meteohub,2013-02-28 13:15:00,
2013-02-28 08:20:00,39.0,38.5,29.66,NE,42,2.0,7.0,98,-99.99,,,-99.99,30.0,meteohub,2013-02-28 13:20:00,
2013-02-28 08:25:00,39.0,38.5,29.65,ENE,59,0.0,7.0,98,-99.99,,,-99.99,35.0,meteohub,2013-02-28 13:25:00,
2013-02-28 08:30:00,39.2,38.7,29.65,North,355,3.0,10.0,98,-99.99,,,-99.99,40.0,meteohub,2013-02-28 13:30:00,
2013-02-28 08:36:00,39.4,38.8,29.65,NNE,24,4.0,10.0,98,-99.99,,,-99.99,44.0,meteohub,2013-02-28 13:36:00,
2013-02-28 08:41:00,39.4,38.8,29.65,NE,51,1.0,10.0,98,-99.99,,,-99.99,47.0,meteohub,2013-02-28 13:41:00,
2013-02-28 08:46:00,39.4,38.8,29.65,NNE,20,0.0,10.0,98,-99.99,,,-99.99,74.0,meteohub,2013-02-28 13:46:00,
2013-02-28 08:51:00,39.6,39.0,29.65,ENE,71,5.0,9.0,98,-99.99,,,-99.99,88.0,meteohub,2013-02-28 13:51:00,
2013-02-28 08:56:00,39.6,39.0,29.65,ENE,69,0.0,10.0,98,-99.99,,,-99.99,74.0,meteohub,2013-02-28 13:56:00,
2013-02-28 09:01:00,39.7,39.2,29.65,East,82,1.0,12.0,98,-99.99,,,-99.99,63.0,meteohub,2013-02-28 14:01:00,
2013-02-28 09:06:00,39.7,39.2,29.65,NE,34,2.0,12.0,98,-99.99,,,-99.99,77.0,meteohub,2013-02-28 14:06:00,
2013-02-28 09:11:00,39.7,39.2,29.65,NE,51,2.0,12.0,98,-99.99,,,-99.99,86.0,meteohub,2013-02-28 14:11:00,
2013-02-28 09:16:00,39.7,39.2,29.65,NE,40,6.0,8.0,98,-99.99,,,-99.99,77.0,meteohub,2013-02-28 14:16:00,
2013-02-28 09:21:00,39.7,39.2,29.65,ENE,67,1.0,8.0,98,-99.99,,,-99.99,74.0,meteohub,2013-02-28 14:21:00,
2013-02-28 09:26:00,39.7,39.2,29.65,ENE,57,2.0,8.0,98,-99.99,,,-99.99,63.0,meteohub,2013-02-28 14:26:00,
2013-02-28 09:31:00,39.7,39.2,29.65,ENE,65,1.0,8.0,98,-99.99,,,-99.99,49.0,meteohub,2013-02-28 14:31:00,
2013-02-28 09:36:00,39.7,39.2,29.65,ENE,59,2.0,7.0,98,-99.99,,,-99.99,72.0,meteohub,2013-02-28 14:36:00,
2013-02-28 09:41:00,39.7,39.2,29.65,NE,44,3.0,9.0,98,-99.99,,,-99.99,62.0,meteohub,2013-02-28 14:41:00,
2013-02-28 09:46:00,39.7,39.2,29.65,NNE,23,4.0,9.0,98,-99.99,,,-99.99,49.0,meteohub,2013-02-28 14:46:00,
2013-02-28 09:51:00,39.7,39.2,29.64,NE,35,3.0,9.0,98,-99.99,,,-99.99,51.0,meteohub,2013-02-28 14:51:00,
2013-02-28 09:56:00,39.7,39.2,29.65,ESE,117,1.0,8.0,98,-99.99,,,-99.99,69.0,meteohub,2013-02-28 14:56:00,
2013-02-28 10:01:00,39.7,39.2,29.64,ENE,78,1.0,8.0,98,-99.99,,,-99.99,76.0,meteohub,2013-02-28 15:01:00,
2013-02-28 10:06:00,39.7,39.2,29.64,NE,53,5.0,11.0,98,-99.99,,,-99.99,76.0,meteohub,2013-02-28 15:06:00,
2013-02-28 10:11:00,39.7,39.2,29.64,WNW,289,1.0,11.0,98,-99.99,,,-99.99,83.0,meteohub,2013-02-28 15:11:00,
2013-02-28 10:16:00,39.7,39.2,29.64,ENE,62,1.0,11.0,98,-99.99,,,-99.99,81.0,meteohub,2013-02-28 15:16:00,
2013-02-28 10:21:00,39.9,39.4,29.64,North,9,4.0,10.0,98,-99.99,,,-99.99,88.0,meteohub,2013-02-28 15:21:00,
2013-02-28 10:26:00,39.9,39.4,29.64,NNE,29,2.0,10.0,98,-99.99,,,-99.99,83.0,meteohub,2013-02-28 15:26:00,
2013-02-28 10:31:00,39.9,39.4,29.64,East,89,1.0,10.0,98,-99.99,,,-99.99,102.0,meteohub,2013-02-28 15:31:00,
2013-02-28 10:36:00,39.9,39.4,29.64,NE,54,1.0,9.0,98,-99.99,,,-99.99,77.0,meteohub,2013-02-28 15:36:00,
2013-02-28 10:41:00,39.9,39.4,29.63,ENE,69,4.0,9.0,98,-99.99,,,-99.99,74.0,meteohub,2013-02-28 15:41:00,
2013-02-28 10:47:00,39.9,39.4,29.63,NNE,30,3.0,9.0,98,-99.99,,,-99.99,95.0,meteohub,2013-02-28 15:47:00,
2013-02-28 10:52:00,39.9,39.4,29.64,NE,52,0.0,9.0,98,-99.99,,,-99.99,58.0,meteohub,2013-02-28 15:52:00,
2013-02-28 10:57:00,39.9,39.4,29.63,East,100,0.0,7.0,98,-99.99,,,-99.99,91.0,meteohub,2013-02-28 15:57:00,
2013-02-28 11:02:00,39.9,39.4,29.63,East,83,0.0,8.0,98,-99.99,,,-99.99,98.0,meteohub,2013-02-28 16:02:00,
2013-02-28 11:07:00,39.9,39.4,29.64,ENE,67,0.0,8.0,98,-99.99,,,-99.99,79.0,meteohub,2013-02-28 16:07:00,
2013-02-28 11:12:00,39.9,39.4,29.64,North,5,1.0,8.0,98,-99.99,,,-99.99,90.0,meteohub,2013-02-28 16:12:00,
2013-02-28 11:17:00,39.9,39.4,29.64,NE,40,2.0,8.0,98,-99.99,,,-99.99,105.0,meteohub,2013-02-28 16:17:00,
2013-02-28 11:22:00,40.1,39.6,29.63,East,80,5.0,10.0,98,-99.99,,,-99.99,97.0,meteohub,2013-02-28 16:22:00,
2013-02-28 11:27:00,40.1,39.6,29.63,NNE,30,2.0,10.0,98,-99.99,,,-99.99,83.0,meteohub,2013-02-28 16:27:00,
2013-02-28 11:32:00,40.1,39.6,29.62,NE,49,2.0,7.0,98,-99.99,,,-99.99,79.0,meteohub,2013-02-28 16:32:00,
2013-02-28 11:37:00,40.3,39.7,29.62,East,88,0.0,7.0,98,-99.99,,,-99.99,69.0,meteohub,2013-02-28 16:37:00,
2013-02-28 11:42:00,40.3,39.7,29.62,ENE,69,4.0,7.0,98,-99.99,,,-99.99,69.0,meteohub,2013-02-28 16:42:00,
2013-02-28 11:47:00,40.3,39.7,29.62,NE,50,1.0,7.0,98,-99.99,,,-99.99,83.0,meteohub,2013-02-28 16:47:00,
2013-02-28 11:52:00,40.3,39.7,29.62,NE,51,0.0,7.0,98,-99.99,,,-99.99,77.0,meteohub,2013-02-28 16:52:00,
2013-02-28 11:57:00,40.5,39.9,29.62,ESE,115,1.0,7.0,98,-99.99,,,-99.99,77.0,meteohub,2013-02-28 16:57:00,
2013-02-28 12:02:00,40.5,39.9,29.62,NE,40,0.0,6.0,98,-99.99,,,-99.99,86.0,meteohub,2013-02-28 17:02:00,
2013-02-28 12:07:00,40.5,39.9,29.62,East,94,0.0,6.0,98,-99.99,,,-99.99,79.0,meteohub,2013-02-28 17:07:00,
2013-02-28 12:12:00,40.3,39.7,29.61,ENE,71,1.0,6.0,98,-99.99,,,-99.99,63.0,meteohub,2013-02-28 17:12:00,
2013-02-28 12:17:00,40.3,39.7,29.61,ENE,71,2.0,6.0,98,-99.99,,,-99.99,63.0,meteohub,2013-02-28 17:17:00,
2013-02-28 12:22:00,40.3,39.7,29.61,ENE,66,1.0,5.0,98,-99.99,,,-99.99,74.0,meteohub,2013-02-28 17:22:00,
2013-02-28 12:27:00,40.3,39.7,29.60,East,101,2.0,5.0,98,-99.99,,,-99.99,97.0,meteohub,2013-02-28 17:27:00,
2013-02-28 12:32:00,40.3,39.7,29.60,NE,52,3.0,7.0,98,-99.99,,,-99.99,91.0,meteohub,2013-02-28 17:32:00,
2013-02-28 12:37:00,40.3,39.7,29.60,ESE,122,1.0,9.0,98,-99.99,,,-99.99,100.0,meteohub,2013-02-28 17:37:00,
2013-02-28 12:42:00,40.5,39.9,29.60,ENE,68,1.0,9.0,98,-99.99,,,-99.99,90.0,meteohub,2013-02-28 17:42:00,
2013-02-28 12:47:00,40.3,39.7,29.59,NE,50,0.0,9.0,98,-99.99,,,-99.99,90.0,meteohub,2013-02-28 17:47:00,
2013-02-28 12:52:00,40.3,39.7,29.59,ENE,68,3.0,5.0,98,-99.99,,,-99.99,79.0,meteohub,2013-02-28 17:52:00,
2013-02-28 12:57:00,40.3,39.7,29.59,ENE,76,1.0,7.0,98,-99.99,,,-99.99,83.0,meteohub,2013-02-28 17:57:00,
2013-02-28 13:02:00,40.3,39.7,29.58,East,91,3.0,7.0,98,-99.99,,,-99.99,74.0,meteohub,2013-02-28 18:02:00,
2013-02-28 13:07:00,40.3,39.7,29.58,ENE,65,2.0,7.0,98,-99.99,,,-99.99,83.0,meteohub,2013-02-28 18:07:00,
2013-02-28 13:12:00,40.3,39.7,29.58,NE,51,0.0,5.0,98,-99.99,,,-99.99,93.0,meteohub,2013-02-28 18:12:00,
2013-02-28 13:17:00,40.3,39.7,29.58,NE,55,2.0,5.0,98,-99.99,,,-99.99,74.0,meteohub,2013-02-28 18:17:00,
2013-02-28 13:22:00,40.3,39.7,29.57,ENE,71,5.0,6.0,98,-99.99,,,-99.99,70.0,meteohub,2013-02-28 18:22:00,
2013-02-28 13:27:00,40.3,39.7,29.58,NNE,20,3.0,8.0,98,-99.99,,,-99.99,88.0,meteohub,2013-02-28 18:27:00,
2013-02-28 13:32:00,40.3,39.7,29.57,East,86,0.0,8.0,98,-99.99,,,-99.99,91.0,meteohub,2013-02-28 18:32:00,
2013-02-28 13:37:00,40.3,39.7,29.57,SE,134,0.0,10.0,98,-99.99,,,-99.99,91.0,meteohub,2013-02-28 18:37:00,
2013-02-28 13:42:00,40.3,39.7,29.57,ESE,107,0.0,10.0,98,-99.99,,,-99.99,74.0,meteohub,2013-02-28 18:42:00,
2013-02-28 13:47:00,40.3,39.7,29.57,ESE,104,3.0,7.0,98,-99.99,,,-99.99,74.0,meteohub,2013-02-28 18:47:00,
2013-02-28 13:52:00,40.3,39.7,29.56,East,90,2.0,7.0,98,-99.99,,,-99.99,69.0,meteohub,2013-02-28 18:52:00,
2013-02-28 13:57:00,40.3,39.7,29.56,ENE,76,1.0,7.0,98,-99.99,,,-99.99,72.0,meteohub,2013-02-28 18:57:00,
2013-02-28 14:02:00,40.3,39.7,29.56,SSE,163,1.0,10.0,98,-99.99,,,-99.99,83.0,meteohub,2013-02-28 19:02:00,
2013-02-28 14:07:00,40.3,39.7,29.56,East,81,1.0,10.0,98,-99.99,,,-99.99,72.0,meteohub,2013-02-28 19:07:00,
2013-02-28 14:12:00,40.3,39.7,29.56,East,86,1.0,6.0,98,-99.99,,,-99.99,65.0,meteohub,2013-02-28 19:12:00,
2013-02-28 14:17:00,40.3,39.7,29.56,NE,34,2.0,7.0,98,-99.99,,,-99.99,69.0,meteohub,2013-02-28 19:17:00,
2013-02-28 14:22:00,40.3,39.7,29.56,ENE,57,2.0,7.0,98,-99.99,,,-99.99,62.0,meteohub,2013-02-28 19:22:00,
2013-02-28 14:27:00,40.3,39.7,29.56,SSE,149,2.0,7.0,98,-99.99,,,-99.99,47.0,meteohub,2013-02-28 19:27:00,
2013-02-28 14:32:00,40.1,39.6,29.56,ENE,57,1.0,5.0,98,-99.99,,,-99.99,49.0,meteohub,2013-02-28 19:32:00,
2013-02-28 14:37:00,39.9,39.4,29.56,ESE,109,1.0,6.0,98,-99.99,,,-99.99,44.0,meteohub,2013-02-28 19:37:00,
2013-02-28 14:42:00,39.9,39.4,29.56,NNE,32,4.0,6.0,98,-99.99,,,-99.99,30.0,meteohub,2013-02-28 19:42:00,
2013-02-28 14:47:00,39.9,39.4,29.56,NE,46,0.0,6.0,98,-99.99,,,-99.99,32.0,meteohub,2013-02-28 19:47:00,
2013-02-28 14:52:00,39.9,39.4,29.56,NNE,25,0.0,6.0,98,-99.99,,,-99.99,28.0,meteohub,2013-02-28 19:52:00,
2013-02-28 14:57:00,39.7,39.2,29.56,ENE,57,2.0,6.0,98,-99.99,,,-99.99,21.0,meteohub,2013-02-28 19:57:00,
2013-02-28 15:02:00,39.7,39.2,29.56,NNE,18,1.0,6.0,98,-99.99,,,-99.99,19.0,meteohub,2013-02-28 20:02:00,
2013-02-28 15:07:00,39.7,39.2,29.56,NE,41,0.0,6.0,98,-99.99,,,-99.99,18.0,meteohub,2013-02-28 20:07:00,
2013-02-28 15:12:00,39.7,39.2,29.56,NE,40,0.0,6.0,98,-99.99,,,-99.99,25.0,meteohub,2013-02-28 20:12:00,
2013-02-28 15:18:00,39.6,39.0,29.56,East,90,0.0,4.0,98,-99.99,,,-99.99,25.0,meteohub,2013-02-28 20:18:00,
2013-02-28 15:23:00,39.6,39.0,29.56,NNE,17,1.0,4.0,98,-99.99,,,-99.99,21.0,meteohub,2013-02-28 20:23:00,
2013-02-28 15:28:00,39.4,38.8,29.56,ENE,76,0.0,4.0,98,-99.99,,,-99.99,18.0,meteohub,2013-02-28 20:28:00,
2013-02-28 15:33:00,39.4,38.8,29.56,NE,35,5.0,5.0,98,-99.99,,,-99.99,18.0,meteohub,2013-02-28 20:33:00,
2013-02-28 15:38:00,39.4,38.8,29.56,NNE,23,0.0,6.0,98,-99.99,,,-99.99,18.0,meteohub,2013-02-28 20:38:00,
2013-02-28 15:43:00,39.4,38.8,29.56,NNE,22,0.0,6.0,98,-99.99,,,-99.99,19.0,meteohub,2013-02-28 20:43:00,
2013-02-28 15:48:00,39.4,38.8,29.55,NE,36,1.0,6.0,98,-99.99,,,-99.99,18.0,meteohub,2013-02-28 20:48:00,
2013-02-28 15:53:00,39.2,38.7,29.55,NNE,27,0.0,4.0,98,-99.99,,,-99.99,19.0,meteohub,2013-02-28 20:53:00,
2013-02-28 15:58:00,39.0,38.5,29.55,NNE,22,3.0,4.0,98,-99.99,,,-99.99,19.0,meteohub,2013-02-28 20:58:00,
2013-02-28 16:03:00,39.0,38.5,29.55,ENE,62,3.0,3.0,98,-99.99,,,-99.99,19.0,meteohub,2013-02-28 21:03:00,
2013-02-28 16:08:00,38.8,38.3,29.55,NE,38,4.0,7.0,98,-99.99,,,-99.99,16.0,meteohub,2013-02-28 21:08:00,
2013-02-28 16:13:00,38.8,38.3,29.55,North,0,3.0,7.0,98,-99.99,,,-99.99,14.0,meteohub,2013-02-28 21:13:00,
2013-02-28 16:18:00,38.7,38.1,29.55,NE,34,2.0,7.0,98,-99.99,,,-99.99,12.0,meteohub,2013-02-28 21:18:00,
2013-02-28 16:23:00,38.7,38.1,29.55,North,0,1.0,7.0,98,-99.99,,,-99.99,12.0,meteohub,2013-02-28 21:23:00,
2013-02-28 16:28:00,38.5,37.9,29.55,NE,34,0.0,5.0,98,-99.99,,,-99.99,12.0,meteohub,2013-02-28 21:28:00,
2013-02-28 16:33:00,38.1,37.6,29.55,North,351,3.0,5.0,98,-99.99,,,-99.99,11.0,meteohub,2013-02-28 21:33:00,
2013-02-28 16:38:00,38.1,37.6,29.55,NNE,22,0.0,5.0,98,-99.99,,,-99.99,14.0,meteohub,2013-02-28 21:38:00,
2013-02-28 16:43:00,37.9,37.4,29.55,NNE,19,0.0,5.0,98,-99.99,,,-99.99,14.0,meteohub,2013-02-28 21:43:00,
2013-02-28 16:48:00,37.9,37.4,29.55,NNE,26,1.0,5.0,98,-99.99,,,-99.99,12.0,meteohub,2013-02-28 21:48:00,
2013-02-28 16:53:00,37.9,37.4,29.55,North,5,1.0,6.0,98,-99.99,,,-99.99,9.0,meteohub,2013-02-28 21:53:00,
2013-02-28 16:58:00,37.8,37.2,29.55,NNE,16,0.0,6.0,98,-99.99,,,-99.99,5.0,meteohub,2013-02-28 21:58:00,
2013-02-28 17:03:00,37.8,37.2,29.55,North,0,6.0,6.0,98,-99.99,,,-99.99,5.0,meteohub,2013-02-28 22:03:00,
2013-02-28 17:08:00,37.2,36.7,29.55,NNE,19,2.0,6.0,98,-99.99,,,-99.99,0.0,meteohub,2013-02-28 22:08:00,
2013-02-28 17:13:00,37.0,36.5,29.55,NNE,20,2.0,9.0,98,-99.99,,,-99.99,0.0,meteohub,2013-02-28 22:13:00,
2013-02-28 17:18:00,36.9,36.3,29.55,NE,38,0.0,9.0,98,-99.99,,,-99.99,0.0,meteohub,2013-02-28 22:18:00,
2013-02-28 17:23:00,36.7,36.1,29.55,NNE,17,3.0,9.0,98,-99.99,,,-99.99,0.0,meteohub,2013-02-28 22:23:00,
2013-02-28 17:28:00,36.5,36.0,29.55,North,0,1.0,9.0,98,-99.99,,,-99.99,0.0,meteohub,2013-02-28 22:28:00,
2013-02-28 17:33:00,36.3,35.8,29.55,NNE,17,0.0,9.0,98,-99.99,,,-99.99,0.0,meteohub,2013-02-28 22:33:00,
2013-02-28 17:38:00,36.1,35.6,29.55,NNE,13,2.0,9.0,98,-99.99,,,-99.99,0.0,meteohub,2013-02-28 22:38:00,
2013-02-28 17:43:00,35.8,35.2,29.55,NE,38,3.0,9.0,98,-99.99,,,-99.99,0.0,meteohub,2013-02-28 22:43:00,
2013-02-28 17:48:00,35.4,34.9,29.55,NW,314,5.0,10.0,98,-99.99,,,-99.99,0.0,meteohub,2013-02-28 22:48:00,
2013-02-28 17:53:00,35.2,34.7,29.55,NNE,29,0.0,10.0,98,-99.99,,,-99.99,0.0,meteohub,2013-02-28 22:53:00,
2013-02-28 17:58:00,35.1,34.5,29.55,ENE,59,2.0,10.0,98,-99.99,,,-99.99,0.0,meteohub,2013-02-28 22:58:00,
2013-02-28 18:03:00,35.1,34.5,29.55,North,5,2.0,10.0,98,-99.99,,,-99.99,0.0,meteohub,2013-02-28 23:03:00,
2013-02-28 18:08:00,34.9,34.3,29.55,NNE,20,2.0,10.0,98,-99.99,,,-99.99,0.0,meteohub,2013-02-28 23:08:00,
2013-02-28 18:13:00,34.5,34.0,29.55,NNE,13,1.0,10.0,98,-99.99,,,-99.99,0.0,meteohub,2013-02-28 23:13:00,
2013-02-28 18:18:00,34.3,33.8,29.55,NNE,13,2.0,9.0,98,-99.99,,,-99.99,0.0,meteohub,2013-02-28 23:18:00,
2013-02-28 18:23:00,34.3,33.8,29.55,North,0,2.0,10.0,98,-99.99,,,-99.99,0.0,meteohub,2013-02-28 23:23:00,
2013-02-28 18:28:00,34.2,33.6,29.55,NNW,344,2.0,10.0,98,-99.99,,,-99.99,0.0,meteohub,2013-02-28 23:28:00,
2013-02-28 18:33:00,34.2,33.6,29.55,North,11,4.0,8.0,98,-99.99,,,-99.99,0.0,meteohub,2013-02-28 23:33:00,
2013-02-28 18:38:00,34.2,33.6,29.54,NNE,15,6.0,10.0,98,-99.99,,,-99.99,0.0,meteohub,2013-02-28 23:38:00,
2013-02-28 18:43:00,34.0,33.4,29.54,North,355,3.0,10.0,98,-99.99,,,-99.99,0.0,meteohub,2013-02-28 23:43:00,
2013-02-28 18:48:00,34.0,33.4,29.54,NNE,20,1.0,7.0,98,-99.99,,,-99.99,0.0,meteohub,2013-02-28 23:48:00,
2013-02-28 18:53:00,34.0,33.4,29.54,ENE,75,3.0,8.0,98,-99.99,,,-99.99,0.0,meteohub,2013-02-28 23:53:00,
2013-02-28 18:58:00,34.0,33.4,29.54,North,5,2.0,12.0,98,-99.99,,,-99.99,0.0,meteohub,2013-02-28 23:58:00,
2013-02-28 19:03:00,34.0,33.4,29.53,North,0,6.0,12.0,98,-99.99,,,-99.99,0.0,meteohub,2013-03-01 00:03:00,
2013-02-28 19:08:00,34.0,33.4,29.53,NNE,17,4.0,12.0,98,-99.99,,,-99.99,0.0,meteohub,2013-03-01 00:08:00,
2013-02-28 19:13:00,34.0,33.4,29.54,ENE,75,2.0,8.0,98,-99.99,,,-99.99,0.0,meteohub,2013-03-01 00:13:00,
2013-02-28 19:18:00,34.0,33.4,29.53,NW,319,3.0,10.0,98,-99.99,,,-99.99,0.0,meteohub,2013-03-01 00:18:00,
2013-02-28 19:23:00,34.0,33.4,29.53,North,9,7.0,11.0,98,-99.99,,,-99.99,0.0,meteohub,2013-03-01 00:23:00,
2013-02-28 19:28:00,34.0,33.4,29.54,NNW,331,1.0,13.0,98,-99.99,,,-99.99,0.0,meteohub,2013-03-01 00:28:00,
2013-02-28 19:33:00,34.0,33.4,29.54,NNW,344,1.0,13.0,98,-99.99,,,-99.99,0.0,meteohub,2013-03-01 00:33:00,
2013-02-28 19:38:00,34.0,33.4,29.54,North,350,2.0,13.0,98,-99.99,,,-99.99,0.0,meteohub,2013-03-01 00:38:00,
2013-02-28 19:43:00,34.0,33.4,29.54,North,5,5.0,8.0,98,-99.99,,,-99.99,0.0,meteohub,2013-03-01 00:43:00,
2013-02-28 19:49:00,34.0,33.4,29.54,NW,323,1.0,11.0,98,-99.99,,,-99.99,0.0,meteohub,2013-03-01 00:49:00,
2013-02-28 19:54:00,34.0,33.4,29.54,NW,314,3.0,11.0,98,-99.99,,,-99.99,0.0,meteohub,2013-03-01 00:54:00,
2013-02-28 19:59:00,34.0,33.4,29.54,NE,35,2.0,11.0,98,-99.99,,,-99.99,0.0,meteohub,2013-03-01 00:59:00,
2013-02-28 20:04:00,34.0,33.4,29.54,WNW,298,0.0,7.0,98,-99.99,,,-99.99,0.0,meteohub,2013-03-01 01:04:00,
2013-02-28 20:09:00,34.0,33.4,29.54,NNW,332,1.0,7.0,98,-99.99,,,-99.99,0.0,meteohub,2013-03-01 01:09:00,
2013-02-28 20:14:00,34.0,33.4,29.54,WNW,293,1.0,6.0,98,-99.99,,,-99.99,0.0,meteohub,2013-03-01 01:14:00,
2013-02-28 20:19:00,34.0,33.4,29.54,NW,306,0.0,6.0,98,-99.99,,,-99.99,0.0,meteohub,2013-03-01 01:19:00,
2013-02-28 20:24:00,34.0,33.4,29.54,WNW,294,0.0,5.0,98,-99.99,,,-99.99,0.0,meteohub,2013-03-01 01:24:00,
2013-02-28 20:29:00,34.0,33.4,29.54,NW,315,1.0,3.0,98,-99.99,,,-99.99,0.0,meteohub,2013-03-01 01:29:00,
2013-02-28 20:34:00,33.8,33.3,29.54,NW,317,2.0,3.0,98,-99.99,,,-99.99,0.0,meteohub,2013-03-01 01:34:00,
2013-02-28 20:39:00,34.0,33.4,29.54,WNW,303,3.0,6.0,98,-99.99,,,-99.99,0.0,meteohub,2013-03-01 01:39:00,
2013-02-28 20:44:00,34.0,33.4,29.54,NW,308,1.0,9.0,98,-99.99,,,-99.99,0.0,meteohub,2013-03-01 01:44:00,
2013-02-28 20:49:00,34.0,33.4,29.53,NNW,332,2.0,9.0,98,-99.99,,,-99.99,0.0,meteohub,2013-03-01 01:49:00,
2013-02-28 20:54:00,34.0,33.4,29.53,NNW,342,1.0,9.0,98,-99.99,,,-99.99,0.0,meteohub,2013-03-01 01:54:00,
2013-02-28 20:59:00,34.0,33.4,29.53,NW,315,1.0,6.0,98,-99.99,,,-99.99,0.0,meteohub,2013-03-01 01:59:00,
2013-02-28 21:04:00,34.0,33.4,29.53,NNW,346,3.0,6.0,98,-99.99,,,-99.99,0.0,meteohub,2013-03-01 02:04:00,
2013-02-28 21:09:00,34.0,33.4,29.53,NNW,336,1.0,7.0,98,-99.99,,,-99.99,0.0,meteohub,2013-03-01 02:09:00,
2013-02-28 21:14:00,34.0,33.4,29.53,NE,36,3.0,7.0,98,-99.99,,,-99.99,0.0,meteohub,2013-03-01 02:14:00,
2013-02-28 21:19:00,34.0,33.8,29.53,NNW,338,0.0,7.0,99,-99.99,,,-99.99,0.0,meteohub,2013-03-01 02:19:00,
2013-02-28 21:24:00,34.0,33.8,29.53,NW,319,2.0,6.0,99,-99.99,,,-99.99,0.0,meteohub,2013-03-01 02:24:00,
2013-02-28 21:29:00,34.0,33.8,29.53,NW,317,2.0,6.0,99,-99.99,,,-99.99,0.0,meteohub,2013-03-01 02:29:00,
2013-02-28 21:34:00,34.0,33.8,29.52,NW,311,2.0,6.0,99,-99.99,,,-99.99,0.0,meteohub,2013-03-01 02:34:00,
2013-02-28 21:39:00,34.0,33.8,29.52,West,270,1.0,9.0,99,-99.99,,,-99.99,0.0,meteohub,2013-03-01 02:39:00,
2013-02-28 21:44:00,34.0,33.4,29.52,NW,322,0.0,9.0,98,-99.99,,,-99.99,0.0,meteohub,2013-03-01 02:44:00,
2013-02-28 21:49:00,34.0,33.4,29.52,NW,326,0.0,9.0,98,-99.99,,,-99.99,0.0,meteohub,2013-03-01 02:49:00,
2013-02-28 21:54:00,34.0,33.4,29.52,NW,319,1.0,6.0,98,-99.99,,,-99.99,0.0,meteohub,2013-03-01 02:54:00,
2013-02-28 21:59:00,34.0,33.4,29.52,North,351,0.0,4.0,98,-99.99,,,-99.99,0.0,meteohub,2013-03-01 02:59:00,
2013-02-28 22:04:00,34.0,33.8,29.52,NW,317,1.0,7.0,99,-99.99,,,-99.99,0.0,meteohub,2013-03-01 03:04:00,
2013-02-28 22:09:00,34.0,33.8,29.52,NNW,338,1.0,7.0,99,-99.99,,,-99.99,0.0,meteohub,2013-03-01 03:09:00,
2013-02-28 22:14:00,34.0,33.8,29.52,NW,313,0.0,6.0,99,-99.99,,,-99.99,0.0,meteohub,2013-03-01 03:14:00,
2013-02-28 22:19:00,34.0,33.8,29.52,North,5,4.0,6.0,99,-99.99,,,-99.99,0.0,meteohub,2013-03-01 03:19:00,
2013-02-28 22:24:00,34.0,33.8,29.52,NNW,331,1.0,4.0,99,-99.99,,,-99.99,0.0,meteohub,2013-03-01 03:24:00,
2013-02-28 22:29:00,34.0,33.8,29.52,NNW,333,1.0,4.0,99,-99.99,,,-99.99,0.0,meteohub,2013-03-01 03:29:00,
2013-02-28 22:34:00,34.0,33.8,29.52,NNW,338,0.0,4.0,99,-99.99,,,-99.99,0.0,meteohub,2013-03-01 03:34:00,
2013-02-28 22:39:00,34.0,33.8,29.51,NW,309,2.0,3.0,99,-99.99,,,-99.99,0.0,meteohub,2013-03-01 03:39:00,
2013-02-28 22:44:00,34.0,33.8,29.51,NW,317,1.0,3.0,99,-99.99,,,-99.99,0.0,meteohub,2013-03-01 03:44:00,
2013-02-28 22:49:00,34.0,33.8,29.51,NW,305,2.0,3.0,99,-99.99,,,-99.99,0.0,meteohub,2013-03-01 03:49:00,
2013-02-28 22:54:00,34.0,33.8,29.51,North,350,0.0,4.0,99,-99.99,,,-99.99,0.0,meteohub,2013-03-01 03:54:00,
2013-02-28 22:59:00,34.0,33.8,29.51,North,5,0.0,4.0,99,-99.99,,,-99.99,0.0,meteohub,2013-03-01 03:59:00,
2013-02-28 23:04:00,34.0,33.8,29.51,NNE,13,1.0,3.0,99,-99.99,,,-99.99,0.0,meteohub,2013-03-01 04:04:00,
2013-02-28 23:09:00,34.0,33.8,29.51,North,9,0.0,4.0,99,-99.99,,,-99.99,0.0,meteohub,2013-03-01 04:09:00,
2013-02-28 23:15:00,34.2,34.0,29.51,NW,311,0.0,4.0,99,-99.99,,,-99.99,0.0,meteohub,2013-03-01 04:15:00,
2013-02-28 23:20:00,34.2,34.0,29.50,NW,314,0.0,5.0,99,-99.99,,,-99.99,0.0,meteohub,2013-03-01 04:20:00,
2013-02-28 23:25:00,34.2,34.0,29.50,NNW,344,0.0,5.0,99,-99.99,,,-99.99,0.0,meteohub,2013-03-01 04:25:00,
2013-02-28 23:30:00,34.2,34.0,29.50,NW,321,0.0,5.0,99,-99.99,,,-99.99,0.0,meteohub,2013-03-01 04:30:00,
2013-02-28 23:35:00,34.2,34.0,29.51,NNE,27,2.0,5.0,99,-99.99,,,-99.99,0.0,meteohub,2013-03-01 04:35:00,
2013-02-28 23:40:00,34.2,34.0,29.50,NNW,329,2.0,5.0,99,-99.99,,,-99.99,0.0,meteohub,2013-03-01 04:40:00,
2013-02-28 23:45:00,34.2,34.0,29.50,NNW,334,0.0,5.0,99,-99.99,,,-99.99,0.0,meteohub,2013-03-01 04:45:00,
2013-02-28 23:50:00,34.2,34.0,29.50,NNE,13,0.0,4.0,99,-99.99,,,-99.99,0.0,meteohub,2013-03-01 04:50:00,
2013-02-28 23:55:00,34.2,34.0,29.50,NNW,340,1.0,4.0,99,-99.99,,,-99.99,0.0,meteohub,2013-03-01 04:55:00,